Regional Weather Roundup
Issued by NWS Kansas City/Pleasant Hill, MO

Home | Current Version | Previous Version | Graphics & Text | Print | Product List | Glossary Off
Versions: 1 2 3 4 5 6 7 8 9 10 11 12 13 14 15 16 17 18 19 20 21 22 23 24 25 26 27 28 29 30 31 32 33 34 35 36 37 38 39 40 41 42 43 44 45 46 47 48 49 50

000
ASUS43 KEAX 262311
RWREAX

WEATHER ROUNDUP FOR EASTERN KANSAS AND NORTHWEST MISSOURI
NATIONAL WEATHER SERVICE KANSAS CITY/PLEASANT HILL MO
500 PM CST WED NOV 26 2014

KSZ040-057-103>105-MOZ028-029-037-043-270000-
...KANSAS CITY METROPOLITAN AREA...

CITY           SKY/WX    TMP DP  RH WIND       PRES   REMARKS
K.C. INTL      CLOUDY    32  25  75 NW21G28   30.17R WCI  20
K.C. DOWNTOWN  CLOUDY    35  26  69 NW16      30.17R WCI  25
LEES SUMMIT    CLOUDY    34  27  75 NW17G28   30.15R WCI  23
OLATHE - IXD   CLOUDY    33  25  72 NW22G32   30.18R WCI  21
OLATHE - OJC   CLOUDY    33  26  75 NW20G30   30.16R WCI  21
LAWRENCE       CLOUDY    33  24  69 NW24      30.22R WCI  20

$$

MOZ001>008-011>017-020>025-030>033-038>040-044>046-053-054-270000-
...NORTHERN AND CENTRAL MISSOURI...

CITY           SKY/WX    TMP DP  RH WIND       PRES   REMARKS
ST. JOSEPH     CLOUDY    32  24  72 NW21      30.21R WCI  20
MOSBY          CLOUDY    34  28  80 NW16G24   30.16R WCI  23
WARRENSBURG    CLOUDY    36  30  80 W15G25    30.13R WCI  26
WHITEMAN AFB   DRIZZLE   36  31  83 NW14G28   30.10R WCI  27
CLINTON        CLOUDY    39  32  75 NW18G24   30.13R WCI  30
SEDALIA        CLOUDY    37  31  78 W18G25    30.09R WCI  27
WARSAW         NOT AVBL
MARSHALL       CLOUDY    37  34  87 NW21G30   30.09R WCI  27
CHILLICOTHE      N/A     33  28  81 NW12G24   30.12R WCI  24
KIRKSVILLE     LGT SNOW  32  32 100 N9        30.03R FOG     WCI  24

$$

MOZ041-047>049-056>058-063>065-088>090-097-270000-
...EASTERN AND SOUTHERN MISSOURI...

CITY           SKY/WX    TMP DP  RH WIND       PRES   REMARKS
ST. LOUIS INTL CLOUDY    34  32  92 CALM      30.03R FOG
SPIRIT OF STL  LGT SNOW  33  32  96 CALM      30.02R FOG
COLUMBIA       LGT RAIN  37  34  89 W14       30.03R WCI  28
JEFFERSON CITY LGT RAIN  39  34  82 W15       30.04R WCI  31
ROLLA          CLOUDY    37  33  85 W15G23    30.01R WCI  28
LEBANON        PTCLDY    41  30  65 NW10      30.06R WCI  35
OSAGE BEACH    CLOUDY    41  28  60 W10G23    30.05R WCI  35
SPRINGFIELD    CLOUDY    44  25  47 W17G25    30.09R
BRANSON        PTCLDY    43  25  49 NW15G24   30.10R
NEVADA         CLOUDY    39  28  65 NW18G26   30.17R WCI  30
JOPLIN         CLOUDY    44  25  47 NW24G31   30.18R WCI  35
WEST PLAINS    MOCLDY    39  31  72 W6        30.05R WCI  35

$$

IAZ060-094-KSZ022-034>040-054-083-096-NEZ052-066-093-270000-
...KANSAS...SOUTHEAST NEBRASKA AND IOWA...

CITY           SKY/WX    TMP DP  RH WIND       PRES   REMARKS
TOPEKA         CLOUDY    35  23  61 NW17G35   30.25R WCI  25
MANHATTAN      PTCLDY    35  22  58 N8G20     30.29R WCI  29
EMPORIA        PTCLDY    35  23  61 NW15G24   30.25R WCI  25
CHANUTE        PTCLDY    39  26  59 NW21G29   30.22R WCI  29
WICHITA        MOCLDY    41  22  46 N23G29    30.30R WCI  31
OMAHA          CLOUDY    28  21  75 N17G25    30.29R WCI  16
LINCOLN        CLOUDY    27  18  69 N22       30.32R WCI  13
FALLS CITY     CLOUDY    30  22  72 NW23G31   30.24R WCI  17
LAMONI         CLOUDY    29  27  92 N22G30    30.10R WCI  15
DES MOINES     FLURRIES  32  27  81 N14       30.16R WCI  22

$$




USA.gov is the U.S. government's official web portal to all federal, state and local government web resources and services.